Wind_Speed
22 20 19 19 17 17 17 17 18 19 20 22 26 30 31 32 32 32 32 31 30 31 30 28 27 28 32 34 37 45 55 58 58 55 52 50 46 61 58 46 45 46 43 44 46
22 16 14 16 17 16 15 15 15 17 19 20 22 24 27 30 31 32 31 31 29 29 30 30 31 30 32 36 38 39 45 51 52 52 50 50 50 52 66 49 44 46 47 45 44
28 21 13 12 15 16 15 14 14 15 16 19 21 21 23 26 29 30 30 31 30 29 28 31 31 33 35 35 39 38 41 39 50 52 52 50 55 55 49 66 42 49 49 47 49
28 28 20 13 12 14 15 15 14 13 14 16 18 20 22 23 28 28 30 31 31 30 29 29 30 32 34 36 38 36 38 42 39 45 50 49 48 56 57 60 59 49 51 49 51
30 29 24 19 10 11 15 16 16 15 14 14 15 18 21 22 25 26 29 30 31 31 30 29 29 31 34 36 37 36 38 38 41 41 43 51 46 45 57 59 64 54 55 52 52
33 28 27 20 13 10 11 15 17 17 17 16 16 16 19 22 23 26 27 29 31 31 31 31 30 30 32 35 35 38 37 35 39 40 40 50 48 48 45 56 54 70 59 57 55
34 31 26 25 20 12 11 12 11 19 22 19 18 17 17 18 21 24 25 28 29 32 33 32 32 32 31 33 35 36 36 36 35 39 39 41 46 47 50 48 42 64 77 70 59
32 31 29 25 24 18 13 11 13 17 17 20 20 19 18 18 18 21 24 25 28 30 32 35 34 33 33 32 33 35 34 35 39 39 40 37 38 47 51 51 45 54 74 69 66
30 30 29 27 24 22 21 16 15 14 13 17 19 21 21 20 19 19 20 23 25 28 30 33 35 36 35 34 34 34 34 35 40 35 39 37 37 44 44 48 46 45 51 61 69
30 29 29 26 25 24 21 19 18 19 14 14 18 20 22 22 20 19 18 18 22 22 25 28 32 34 36 35 33 40 35 37 36 38 37 38 37 39 38 41 44 43 49 38 72
30 30 27 27 25 23 22 22 21 23 18 15 15 21 22 21 22 20 19 19 19 19 21 23 25 28 33 34 37 39 38 39 39 40 39 39 38 37 37 40 40 40 44 46 63
28 28 29 26 26 24 23 22 22 21 20 17 14 15 20 26 25 24 22 22 22 22 21 22 25 27 28 28 30 32 35 37 40 41 42 42 40 37 37 39 40 40 40 43 45
26 27 27 26 26 25 24 25 23 21 20 20 17 14 13 16 20 24 26 27 26 25 25 24 27 25 25 26 27 29 31 34 33 36 36 38 37 38 38 40 41 41 41 43 45
25 25 26 26 25 25 24 24 24 23 21 23 20 16 14 14 16 18 21 24 26 26 27 25 27 25 25 26 27 27 31 30 30 30 31 33 33 33 33 35 38 40 42 45 48
23 24 24 25 25 24 24 23 23 24 24 23 22 18 15 15 15 17 19 20 23 26 26 26 27 26 26 29 30 28 29 29 29 29 28 28 31 29 28 31 35 38 40 43 46
23 24 24 24 24 24 24 23 24 23 22 21 21 20 19 17 17 17 18 20 20 21 24 26 30 29 27 30 31 32 31 31 31 31 32 32 33 34 35 34 37 39 41 43 46
24 24 24 23 23 24 23 22 23 21 22 22 21 20 19 19 19 17 18 21 22 25 26 26 30 34 32 31 30 31 32 29 27 29 23 36 33 34 34 32 37 42 46 49 49
24 25 25 23 23 23 23 23 22 21 21 22 21 21 20 21 21 20 21 22 25 29 29 31 29 30 29 29 30 30 33 31 27 17 18 33 33 32 28 31 32 35 39 46 50
26 24 26 25 24 23 24 24 24 23 22 23 23 22 23 22 23 23 22 23 24 26 25 25 27 32 30 32 31 31 32 34 35 32 32 30 26 26 28 28 33 36 39 41 45
30 26 24 26 25 25 25 25 25 24 24 23 24 23 25 26 25 26 27 28 26 25 24 25 27 28 28 29 31 35 32 31 29 30 25 23 21 21 26 29 33 38 41 44 46
32 30 26 25 25 26 26 26 27 27 26 26 26 26 26 28 29 28 31 30 29 28 25 27 29 27 29 28 29 31 35 29 31 30 28 26 21 26 26 30 31 33 37 38 41
33 34 28 27 26 27 28 27 26 28 29 29 30 31 31 31 32 32 32 33 32 31 28 26 25 21 18 21 28 29 28 29 29 28 29 31 22 25 23 30 31 31 32 34 37
31 31 30 28 27 26 28 28 27 27 30 33 34 36 38 36 37 33 36 36 33 32 27 20 21 22 17 20 23 26 28 30 32 33 31 33 25 29 31 33 33 36 40 42 44
31 32 29 27 26 26 28 28 30 30 32 36 38 42 43 42 38 36 37 38 31 29 29 24 23 24 24 19 16 23 26 29 29 34 32 35 33 34 34 35 43 42 42 47 52
31 32 32 31 27 26 28 31 31 33 35 38 43 45 45 42 38 35 34 32 31 29 27 24 21 23 24 27 28 28 27 27 30 31 36 33 39 39 39 44 45 45 47 48 52
32 32 31 30 29 29 29 31 31 33 36 39 43 45 42 36 30 23 24 21 20 20 18 18 21 21 21 24 30 32 28 26 29 31 37 40 43 42 44 47 46 46 51 54 55
29 30 31 30 28 28 29 29 32 34 36 40 42 38 34 29 24 19 15 14 13 12 16 18 19 20 18 18 27 35 28 29 31 34 38 42 42 43 45 45 46 48 54 57 63
Wind_Direction
321 299 287 280 277 277 277 269 262 259 257 256 253 251 250 249 249 248 248 248 246 244 244 243 242 240 243 243 240 235 238 237 236 236 238 239 236 222 226 236 241 239 233 229 222
350 321 292 284 278 276 274 275 271 263 259 259 257 254 251 248 247 247 246 247 246 245 243 243 243 240 241 242 242 242 244 243 243 240 238 240 241 241 222 229 231 237 233 227 222
12 2 319 292 281 277 275 275 274 272 269 265 261 257 254 251 248 246 246 245 245 245 245 243 244 240 241 240 243 244 246 248 243 243 237 236 240 244 243 223 228 232 231 225 221
14 13 3 314 292 276 274 274 276 278 278 273 269 262 258 254 252 249 247 246 246 245 244 244 242 243 244 242 243 246 247 246 250 244 236 235 241 238 240 230 217 227 229 225 221
19 19 10 4 310 297 273 273 275 280 282 283 275 267 261 257 254 251 247 246 245 245 245 246 245 244 244 244 246 247 249 248 246 244 241 235 235 246 239 236 228 218 228 225 219
21 17 20 10 2 310 310 279 273 275 281 285 284 276 265 261 258 254 250 248 246 245 243 244 245 246 246 245 247 248 253 248 245 243 238 240 241 245 235 236 237 229 221 224 220
16 20 17 17 14 346 325 294 302 278 272 278 279 280 275 270 261 258 255 251 247 245 245 244 245 246 246 247 247 249 249 250 249 248 242 239 239 242 246 247 245 227 225 222 219
12 16 20 19 19 19 5 337 302 315 271 268 273 275 276 274 270 263 256 254 252 248 245 244 245 246 247 250 248 249 249 251 250 251 250 244 243 240 242 247 249 234 226 221 219
10 13 16 20 20 20 22 12 360 325 300 271 272 272 272 272 274 269 264 257 256 254 250 247 245 246 246 247 250 249 250 248 257 250 254 250 246 246 242 247 252 244 232 228 222
6 6 11 14 18 16 12 10 4 357 336 300 275 270 270 269 270 272 269 264 258 256 255 252 249 247 247 247 249 248 246 250 251 253 252 253 248 247 243 244 246 246 250 247 220
1 4 4 9 10 12 12 9 6 4 353 323 293 266 265 266 268 269 271 271 264 258 258 257 254 249 247 247 248 250 250 251 252 254 253 254 253 249 246 245 243 244 240 250 222
357 360 359 3 4 4 5 7 7 4 4 355 327 293 276 266 264 268 271 270 267 262 259 259 254 253 253 251 251 252 252 252 251 252 253 253 253 253 250 248 246 242 241 243 248
354 355 356 356 358 358 359 2 2 5 5 6 359 336 301 280 270 266 266 265 263 262 260 259 254 249 252 253 253 253 252 253 253 255 256 253 254 251 249 248 247 246 244 241 237
352 351 352 352 351 352 352 355 357 360 2 5 2 354 349 304 289 279 270 266 264 260 258 253 255 252 252 253 253 255 251 253 253 252 251 254 251 252 252 252 251 248 243 243 243
347 348 349 349 349 346 347 347 351 355 360 353 352 350 338 334 316 289 281 273 266 260 259 256 251 251 251 251 252 252 256 256 257 258 257 258 257 253 245 247 251 250 250 248 243
341 342 346 345 346 344 341 343 342 348 352 347 344 345 337 326 318 307 290 278 270 269 266 258 259 253 250 250 251 252 253 255 257 259 262 261 262 264 260 256 252 251 252 251 251
335 338 339 343 343 343 338 337 335 338 337 338 337 333 329 322 314 303 292 281 277 274 275 271 262 258 252 251 252 254 255 255 259 257 254 258 260 263 271 267 261 258 255 252 250
328 333 335 337 338 339 337 335 330 329 326 326 327 326 321 318 312 303 290 281 275 270 272 268 263 261 254 253 253 256 251 248 247 242 245 260 261 267 258 262 263 261 262 264 260
321 323 328 332 331 335 335 333 328 325 322 319 317 318 315 312 308 305 296 291 282 278 276 268 267 258 256 241 249 257 254 249 250 255 259 258 266 265 263 259 265 264 264 265 266
322 320 321 324 329 332 334 333 327 323 320 316 314 314 310 308 306 300 295 294 286 283 274 271 265 259 257 254 252 250 248 247 250 255 258 262 256 264 263 267 276 283 282 280 275
322 325 317 317 323 328 333 333 328 324 319 316 314 313 308 303 300 295 293 291 288 285 279 275 274 257 261 252 244 247 242 243 247 251 255 253 255 259 268 281 282 284 281 278 278
322 327 323 315 318 323 329 329 328 327 324 321 318 314 309 302 295 291 287 284 284 282 281 281 276 262 247 237 241 242 248 253 250 252 254 258 247 257 273 287 288 282 278 280 278
320 328 326 320 315 322 323 325 327 328 325 324 322 318 313 303 294 289 284 280 279 283 279 278 274 259 247 252 253 249 250 248 251 254 255 259 255 275 282 284 280 278 278 280 287
325 328 329 322 316 319 323 326 329 331 330 326 324 321 315 306 298 291 283 283 280 277 277 273 267 262 245 214 231 242 242 249 250 254 264 264 266 276 277 281 279 281 285 279 283
328 330 334 328 323 319 324 326 330 332 332 330 329 324 316 312 304 295 286 281 281 278 276 276 275 271 261 239 242 244 248 252 257 265 269 267 271 272 281 279 282 288 285 280 284
325 329 332 331 325 323 321 324 330 332 334 332 332 325 326 323 315 300 290 291 283 271 271 279 281 280 268 248 241 249 254 259 267 273 275 277 274 285 285 287 290 288 288 286 282
319 327 331 329 328 324 323 327 333 336 337 337 336 334 339 342 339 332 313 289 290 287 276 268 272 269 265 262 247 250 256 262 269 270 273 276 280 282 283 286 289 291 291 286 281
Height
5753 5751 5750 5750 5750 5749 5749 5749 5749 5750 5751 5752 5753 5755 5757 5759 5762 5764 5767 5769 5771 5772 5774 5777 5779 5781 5782 5783 5788 5792 5792 5797 5804 5809 5814 5816 5820 5821 5824 5831 5832 5835 5842 5846 5852
5749 5746 5745 5745 5745 5745 5745 5745 5745 5745 5746 5747 5748 5749 5750 5752 5754 5756 5759 5761 5763 5766 5768 5770 5772 5774 5775 5777 5780 5783 5785 5792 5799 5802 5806 5809 5811 5811 5817 5821 5825 5827 5833 5838 5844
5748 5744 5742 5742 5742 5741 5742 5741 5741 5741 5741 5742 5743 5744 5745 5746 5747 5749 5752 5754 5756 5759 5761 5763 5765 5767 5769 5771 5773 5777 5778 5785 5784 5789 5796 5799 5801 5802 5809 5813 5818 5818 5822 5829 5836
5750 5744 5740 5738 5738 5738 5738 5738 5738 5738 5738 5738 5738 5738 5739 5740 5741 5742 5744 5747 5749 5751 5754 5755 5758 5759 5761 5764 5765 5769 5772 5773 5777 5779 5784 5792 5793 5793 5796 5804 5804 5810 5813 5819 5826
5751 5745 5741 5737 5735 5735 5735 5735 5735 5735 5734 5734 5734 5734 5734 5735 5735 5735 5737 5739 5742 5744 5746 5748 5750 5752 5753 5756 5758 5761 5762 5765 5768 5771 5774 5779 5782 5782 5785 5790 5795 5799 5806 5810 5816
5751 5746 5741 5737 5734 5733 5733 5732 5733 5732 5732 5731 5730 5729 5729 5729 5729 5729 5730 5732 5735 5737 5739 5741 5743 5745 5746 5748 5751 5751 5754 5758 5760 5762 5764 5767 5771 5770 5777 5777 5786 5792 5796 5802 5806
5752 5747 5742 5738 5733 5731 5730 5729 5729 5728 5728 5728 5727 5726 5725 5725 5724 5724 5725 5726 5727 5729 5732 5734 5736 5737 5739 5740 5742 5745 5748 5749 5752 5754 5755 5756 5762 5764 5766 5770 5777 5781 5785 5791 5796
5753 5748 5743 5738 5734 5730 5728 5726 5725 5724 5723 5723 5723 5722 5721 5720 5720 5719 5719 5720 5721 5722 5724 5727 5729 5730 5732 5735 5736 5738 5740 5741 5740 5744 5746 5749 5753 5753 5758 5764 5769 5772 5778 5782 5786
5754 5749 5743 5739 5734 5730 5727 5725 5723 5720 5718 5718 5718 5717 5717 5716 5715 5714 5714 5715 5715 5716 5717 5719 5721 5723 5726 5727 5729 5731 5733 5734 5731 5736 5737 5741 5744 5741 5750 5753 5758 5763 5766 5770 5777
5753 5748 5744 5739 5735 5731 5727 5724 5721 5718 5715 5713 5712 5713 5712 5711 5710 5710 5710 5710 5710 5710 5711 5712 5714 5716 5718 5720 5722 5721 5725 5726 5726 5727 5729 5731 5735 5736 5740 5743 5748 5753 5753 5758 5762
5752 5747 5743 5738 5734 5730 5726 5723 5721 5717 5712 5709 5707 5706 5705 5705 5705 5705 5705 5705 5705 5705 5705 5706 5707 5708 5708 5711 5713 5714 5716 5717 5718 5719 5722 5723 5725 5729 5731 5732 5736 5742 5745 5748 5753
5750 5746 5742 5737 5733 5729 5724 5721 5717 5715 5710 5706 5702 5700 5699 5699 5700 5700 5700 5701 5701 5700 5701 5702 5700 5700 5701 5703 5704 5705 5707 5708 5709 5711 5712 5714 5716 5722 5724 5725 5726 5731 5736 5738 5741
5748 5744 5740 5736 5732 5728 5722 5718 5715 5711 5708 5704 5700 5696 5695 5694 5693 5693 5694 5694 5694 5694 5694 5695 5694 5695 5695 5696 5697 5698 5699 5699 5702 5702 5704 5705 5709 5710 5714 5716 5716 5719 5725 5728 5731
5746 5742 5738 5734 5731 5726 5722 5716 5712 5708 5705 5702 5698 5695 5692 5690 5689 5688 5687 5687 5687 5687 5687 5688 5687 5689 5689 5689 5690 5690 5690 5692 5694 5696 5697 5698 5702 5703 5705 5706 5705 5708 5713 5717 5719
5744 5740 5736 5731 5728 5724 5720 5715 5710 5706 5703 5700 5696 5692 5689 5687 5685 5683 5682 5681 5680 5680 5682 5681 5680 5682 5682 5682 5682 5683 5683 5685 5686 5687 5689 5691 5692 5696 5699 5698 5698 5700 5701 5704 5708
5741 5737 5733 5729 5725 5721 5717 5713 5709 5706 5700 5697 5693 5689 5686 5683 5680 5677 5677 5676 5675 5673 5673 5674 5672 5674 5674 5674 5675 5675 5677 5678 5679 5680 5682 5681 5683 5685 5687 5689 5690 5692 5693 5694 5696
5737 5733 5729 5725 5722 5717 5714 5710 5708 5702 5699 5695 5690 5686 5683 5679 5676 5673 5671 5670 5669 5667 5666 5666 5664 5664 5665 5666 5667 5668 5669 5672 5673 5673 5677 5672 5675 5676 5675 5674 5677 5679 5681 5683 5687
5735 5730 5726 5721 5718 5714 5710 5707 5704 5699 5694 5691 5687 5683 5679 5675 5672 5669 5666 5664 5661 5660 5659 5658 5658 5656 5657 5658 5659 5659 5660 5661 5662 5667 5669 5664 5668 5664 5667 5664 5664 5664 5666 5666 5673
5730 5727 5723 5718 5713 5710 5706 5702 5699 5694 5691 5686 5682 5679 5675 5671 5667 5663 5660 5657 5654 5652 5651 5648 5648 5647 5647 5647 5650 5651 5651 5651 5651 5654 5655 5658 5659 5658 5656 5656 5654 5654 5654 5655 5657
5725 5721 5718 5714 5709 5705 5702 5698 5693 5689 5685 5681 5677 5674 5669 5664 5661 5656 5652 5649 5647 5645 5642 5640 5639 5639 5638 5639 5640 5641 5642 5643 5645 5646 5647 5650 5652 5650 5648 5648 5644 5642 5643 5642 5644
5720 5716 5712 5708 5705 5701 5697 5692 5687 5684 5679 5676 5671 5667 5663 5658 5653 5649 5645 5641 5637 5634 5634 5631 5629 5631 5628 5629 5631 5631 5632 5636 5636 5638 5638 5641 5645 5641 5641 5637 5638 5635 5631 5632 5630
5713 5710 5707 5704 5701 5696 5692 5687 5683 5677 5673 5668 5664 5659 5654 5649 5644 5639 5635 5630 5627 5625 5624 5622 5621 5621 5622 5622 5622 5625 5626 5627 5629 5631 5630 5630 5637 5632 5631 5628 5627 5625 5621 5618 5619
5709 5706 5701 5698 5695 5691 5687 5681 5677 5672 5666 5661 5655 5650 5643 5638 5631 5629 5624 5620 5618 5616 5616 5616 5615 5616 5618 5620 5619 5619 5620 5620 5620 5621 5622 5622 5627 5621 5620 5619 5617 5614 5612 5608 5604
5704 5700 5698 5692 5689 5686 5682 5676 5670 5666 5660 5654 5648 5640 5632 5624 5618 5615 5610 5608 5607 5606 5606 5607 5608 5608 5611 5615 5611 5612 5613 5612 5613 5612 5613 5612 5613 5614 5612 5609 5604 5602 5599 5595 5591
5699 5695 5691 5687 5683 5679 5675 5670 5665 5660 5654 5647 5640 5631 5621 5612 5605 5601 5598 5597 5596 5596 5597 5598 5600 5600 5600 5603 5604 5603 5604 5605 5605 5606 5601 5606 5600 5602 5599 5595 5592 5589 5585 5581 5577
5693 5688 5685 5681 5677 5673 5669 5665 5660 5655 5648 5641 5632 5621 5610 5601 5594 5591 5588 5587 5587 5588 5590 5591 5591 5592 5592 5593 5595 5594 5597 5598 5597 5596 5592 5591 5588 5589 5585 5580 5577 5573 5568 5563 5558
5689 5684 5680 5676 5672 5668 5664 5659 5654 5649 5644 5635 5625 5615 5605 5596 5589 5585 5583 5582 5583 5584 5584 5585 5586 5586 5586 5587 5587 5587 5591 5590 5589 5588 5585 5581 5581 5577 5572 5568 5563 5557 5551 5544 5537